Regional Weather Roundup
Issued by NWS

Home | Current Version | Previous Version | Text Only | Print | Product List | Glossary On
Versions: 1 2 3 4 5 6 7 8 9 10 11 12 13 14 15 16 17 18 19 20 21 22 23 24 25 26 27 28 29 30 31 32 33 34 35 36 37 38 39 40 41 42 43 44 45 46 47 48 49 50
662
ASCA42 TJSJ 122310
RWRPR
PUERTO RICO/U.S. VIRGIN ISLANDS HOURLY WEATHER ROUNDUP
NATIONAL WEATHER SERVICE SAN JUAN PR
700 PM AST FRI FEB 12 2016

PRZ001-004-130000-
PUERTO RICO

CITY           SKY/WX    TMP DP  RH WIND       PRES   REMARKS
SAN JUAN LMM   PTCLDY    77  70  78 E13       30.06S
AGUADILLA      CLEAR     77  66  69 E9        30.06S
CEIBA          MOCLDY    77  70  78 NE9       30.08S
$$

PRZ006-007-130000-
U.S. VIRGIN ISLANDS

CITY           SKY/WX    TMP DP  RH WIND       PRES   REMARKS
CHARLOTTE AMA  CLEAR     77  70  78 E13       30.05S
CHRISTIANSTED  CLEAR     79  70  73 E9        30.06R
$$

HOURLY WEATHER ROUNDUP FOR THE NEWS MEDIA

CITY           SKY/WX    TMP DP  RH WIND       PRES   REMARKS
ORLANDO        CLEAR     71  49  45 W16G23    30.17R
NEW YORK       CLOUDY    26   4  38 SW13      30.04F WCI  15
NEWARK         CLOUDY    25   3  38 W9        30.02F WCI  15
CHICAGO        PTCLDY    19  -3  38 NW26G35   30.22R WCI   1
HARTFORD       CLOUDY    23   9  55 SW6       30.03F WCI  16
BOSTON         CLOUDY    22   4  46 S13       30.03F WCI  10
DALLAS         SUNNY     69  36  29 NE8       30.26R
PHILADELPHIA   CLOUDY    24   7  48 S7        30.04F WCI  16
LOS ANGELES    MOSUNNY   71  48  43 W10       30.03F
WASHINGTON DC  MOCLDY    28   8  43 SW5       29.99F WCI  23



USA.gov is the U.S. government's official web portal to all federal, state and local government web resources and services.